Location: Boursonne
(49.2024°N, 3.0468°E)
Time: 00:31:23
(UTC+00:00)

Resurs 01 Rocket - Pass Details

Date: 03 March 2021
Orbit: 635 x 643 km, 98.0° (Epoch: 14 April)

Event Time Altitude Azimuth Distance (km) Brightness Sun altitude
Exits shadow 19:12:42 23° 58° (ENE) 1,376 2.9 -16.8°
Drops below altitude 10° 19:15:55 10° 11° (N) 2,036 4.2 -17.3°
Sets 19:18:30 0° 357° (N) 2,950 5.2 -17.7°
